TimeCST,TemperatureF,Dew PointF,Humidity,Sea Level PressureIn,VisibilityMPH,Wind Direction,Wind SpeedMPH,Gust SpeedMPH,PrecipitationIn,Events,Conditions,WindDirDegrees,DateUTC
12:00 AM,67,67,99,29.84,0,WSW,4.6,,,Fog,Heavy Fog,250,2013-10-18 06:00:00
12:00 AM,66.2,66.2,100,30.00,0.3,WSW,4.6,-,N/A,Fog,Fog,250,2013-10-18 06:00:00
1:00 AM,66.2,66.2,100,29.99,0.3,SSW,3.5,-,N/A,Fog,Fog,200,2013-10-18 07:00:00
2:00 AM,66.2,66.2,100,29.98,0.3,SSW,2.3,-,N/A,Fog,Fog,210,2013-10-18 08:00:00
2:37 AM,66.2,66.2,100,29.97,0.9,Calm,Calm,-,N/A,,Mostly Cloudy,0,2013-10-18 08:37:00
3:00 AM,67,67,98,29.83,1,Calm,Calm,,,Fog,Heavy Fog,,2013-10-18 09:00:00
3:00 AM,66.2,66.2,100,29.97,0.9,Calm,Calm,-,N/A,,Mostly Cloudy,0,2013-10-18 09:00:00
4:00 AM,66.2,66.2,100,29.98,0.3,Calm,Calm,-,N/A,Fog,Fog,0,2013-10-18 10:00:00
4:15 AM,66.2,66.2,100,29.98,0.9,Calm,Calm,-,N/A,,Mostly Cloudy,0,2013-10-18 10:15:00
5:00 AM,66.2,66.2,100,29.99,3.1,NNE,3.5,-,N/A,,Scattered Clouds,20,2013-10-18 11:00:00
6:00 AM,66,64,93,29.89,5,ENE,2.3,,,Fog,Light Fog,60,2013-10-18 12:00:00
6:00 AM,66.2,64.4,94,30.00,5.0,ENE,2.3,-,N/A,Fog,Fog,60,2013-10-18 12:00:00
7:00 AM,73.4,64.4,73,30.03,-9999.0,ESE,2.3,-,N/A,,Clear,110,2013-10-18 13:00:00
8:00 AM,78.8,62.6,57,30.04,-9999.0,North,2.3,-,N/A,,Clear,10,2013-10-18 14:00:00
9:00 AM,80,63,47,29.85,12,ESE,6.9,,,,Scattered Clouds,110,2013-10-18 15:00:00
9:00 AM,80.6,62.6,54,30.05,6.2,ESE,6.9,-,N/A,,Scattered Clouds,110,2013-10-18 15:00:00
10:00 AM,80.6,68.0,65,30.04,6.2,West,4.6,-,N/A,,Scattered Clouds,270,2013-10-18 16:00:00
11:00 AM,80.6,68.0,65,30.01,6.2,WSW,8.1,-,N/A,,Scattered Clouds,240,2013-10-18 17:00:00
12:00 PM,78,69,67,29.81,12,WSW,12.7,,,,Mostly Cloudy,240,2013-10-18 18:00:00
12:00 PM,78.8,69.8,74,29.98,6.2,WSW,12.7,-,N/A,,Scattered Clouds,240,2013-10-18 18:00:00
1:00 PM,75.2,68.0,78,29.96,6.2,West,11.5,-,N/A,,Mostly Cloudy,270,2013-10-18 19:00:00
1:25 PM,73.4,69.8,88,29.95,6.2,WSW,10.4,-,N/A,Rain-Thunderstorm,Rain,240,2013-10-18 19:25:00
1:43 PM,71.6,35.6,27,2.99,3.1,SSW,9.2,-,N/A,Rain-Thunderstorm,Thunderstorms and Rain,210,2013-10-18 19:43:00
2:00 PM,71.6,66.2,83,-9999,1.0,SSW,5.8,-,N/A,Rain-Thunderstorm,Light Thunderstorms and Rain,200,2013-10-18 20:00:00
3:00 PM,70,68,93,29.82,5,NNW,3.5,,,Rain,Light Rain,340,2013-10-18 21:00:00
3:00 PM,69.8,68.0,94,29.95,5.0,NNW,3.5,-,N/A,Rain,Light Rain,340,2013-10-18 21:00:00
4:00 PM,71.6,68.0,88,29.96,6.2,ENE,5.8,-,N/A,,Light Drizzle,70,2013-10-18 22:00:00
5:00 PM,71.6,68.0,88,29.97,6.2,NNE,6.9,-,N/A,,Mostly Cloudy,20,2013-10-18 23:00:00
6:00 PM,69,65,83,29.86,9,SE,5.8,,,,Overcast,140,2013-10-19 00:00:00
6:00 PM,69.8,64.4,83,29.99,6.2,SE,5.8,-,N/A,,Mostly Cloudy,140,2013-10-19 00:00:00
7:00 PM,69.8,64.4,83,30.02,-9999.0,East,10.4,-,N/A,,Clear,90,2013-10-19 01:00:00
8:00 PM,69.8,64.4,83,30.03,-9999.0,SSW,3.5,-,N/A,,Clear,210,2013-10-19 02:00:00
9:00 PM,69,65,81,29.83,12,SE,2.3,,,,Clear,130,2013-10-19 03:00:00
9:00 PM,69.8,64.4,83,30.03,-9999.0,SE,2.3,-,N/A,,Clear,130,2013-10-19 03:00:00
10:00 PM,68.0,68.0,100,30.03,0.7,SSW,6.9,-,N/A,,Mostly Cloudy,210,2013-10-19 04:00:00
10:09 PM,68.0,66.2,94,30.02,6.2,WSW,4.6,-,N/A,,Mostly Cloudy,240,2013-10-19 04:09:00
11:00 PM,68.0,68.0,100,30.04,5.0,North,3.5,-,N/A,Fog,Fog,350,2013-10-19 05:00:00